Tracking 20083 objects as of 9-Dec-2019
HD Live streaming from Space Station
objects crossing your sky now

STARLINK-54

Track STARLINK-54 now!
10-day predictions
STARLINK-54 is classified as:


NORAD ID: 44266
Int'l Code: 2019-029AH
Perigee: 535.8 km
Apogee: 537.8 km
Inclination: 53.0 °
Period: 95.2 minutes
Semi major axis: 6907 km
RCS: Unknown
Launch date: May 24, 2019
Source: United States (US)
Launch site: AIR FORCE EASTERN TEST RANGE (AFETR)
aabbcc
Your satellite tracking list
Your tracking list is empty




NASA's NSSDC Master Catalog

Two Line Element Set (TLE):
1 44266U 19029AH  19343.25002315 -.00017490  00000-0 -98821-3 0  9995
2 44266  52.9960 356.9669 0001451 128.4686 169.5068 15.12145990 30112
Source of the keplerian elements: AFSPC